Time,TemperatureF,DewpointF,PressureIn,WindDirection,WindDirectionDegrees,WindSpeedMPH,WindSpeedGustMPH,Humidity,HourlyPrecipIn,Conditions,Clouds,dailyrainin,SoftwareType,DateUTC
2013-04-14 00:00:00,22.0,17.6,29.92,NNE,30,0.0,0.0,83,0.00,,CLR,0.00,VWS V14.00,2013-04-14 05:00:00,
2013-04-14 00:07:00,22.3,18.2,29.91,NNE,30,0.0,0.0,84,0.00,,CLR,0.00,VWS V14.00,2013-04-14 05:07:00,
2013-04-14 00:12:00,22.6,18.8,29.92,NNE,30,0.0,0.0,85,0.00,,CLR,0.00,VWS V14.00,2013-04-14 05:12:00,
2013-04-14 00:17:00,22.8,19.2,29.92,NNE,30,0.0,0.0,86,0.00,,CLR,0.00,VWS V14.00,2013-04-14 05:17:00,
2013-04-14 00:22:00,23.0,19.2,29.92,NNE,30,0.0,0.0,85,0.00,,CLR,0.00,VWS V14.00,2013-04-14 05:22:00,
2013-04-14 00:27:00,23.2,19.6,29.92,NNE,30,0.0,0.0,86,0.00,,CLR,0.00,VWS V14.00,2013-04-14 05:27:00,
2013-04-14 00:32:00,23.3,19.7,29.92,NNE,30,0.0,0.0,86,0.00,,CLR,0.00,VWS V14.00,2013-04-14 05:32:00,
2013-04-14 00:37:00,23.5,19.7,29.92,NNE,30,0.0,0.0,85,0.00,,CLR,0.00,VWS V14.00,2013-04-14 05:37:00,
2013-04-14 00:42:00,23.6,20.0,29.91,NNE,30,0.0,0.0,86,0.00,,CLR,0.00,VWS V14.00,2013-04-14 05:42:00,
2013-04-14 00:47:00,24.0,20.1,29.91,NNE,30,0.0,0.0,85,0.00,,CLR,0.00,VWS V14.00,2013-04-14 05:47:00,
2013-04-14 00:52:00,24.4,20.5,29.91,NNE,30,0.0,0.0,85,0.00,,CLR,0.00,VWS V14.00,2013-04-14 05:52:00,
2013-04-14 00:57:00,24.7,20.8,29.91,NNE,30,0.0,0.0,85,0.00,,CLR,0.00,VWS V14.00,2013-04-14 05:57:00,
2013-04-14 01:02:00,25.0,21.1,29.91,NNE,30,0.0,0.0,85,0.00,,CLR,0.00,VWS V14.00,2013-04-14 06:02:00,
2013-04-14 01:07:00,25.2,21.0,29.91,NNE,30,0.0,0.0,84,0.00,,CLR,0.00,VWS V14.00,2013-04-14 06:07:00,
2013-04-14 01:12:00,25.3,20.9,29.91,NNE,30,0.0,0.0,83,0.00,,CLR,0.00,VWS V14.00,2013-04-14 06:12:00,
2013-04-14 01:17:00,25.7,21.3,29.91,ENE,64,0.0,0.0,83,0.00,,CLR,0.00,VWS V14.00,2013-04-14 06:17:00,
2013-04-14 01:22:00,26.3,21.6,29.91,ENE,73,0.0,0.0,82,0.00,,CLR,0.00,VWS V14.00,2013-04-14 06:22:00,
2013-04-14 01:27:00,26.6,21.6,29.91,ENE,73,0.0,0.0,81,0.00,,CLR,0.00,VWS V14.00,2013-04-14 06:27:00,
2013-04-14 01:32:00,26.7,21.7,29.90,ENE,73,0.0,0.0,81,0.00,,CLR,0.00,VWS V14.00,2013-04-14 06:32:00,
2013-04-14 01:37:00,26.6,21.3,29.90,ENE,74,0.0,0.0,80,0.00,,CLR,0.00,VWS V14.00,2013-04-14 06:37:00,
2013-04-14 01:42:00,26.5,21.2,29.90,ENE,74,0.0,0.0,80,0.00,,CLR,0.00,VWS V14.00,2013-04-14 06:42:00,
2013-04-14 01:47:00,26.5,20.9,29.90,ENE,75,0.0,0.0,79,0.00,,CLR,0.00,VWS V14.00,2013-04-14 06:47:00,
2013-04-14 01:52:00,26.4,20.8,29.90,ENE,75,0.0,0.0,79,0.00,,CLR,0.00,VWS V14.00,2013-04-14 06:52:00,
2013-04-14 01:57:00,26.4,20.8,29.90,ENE,76,0.0,1.0,79,0.00,,CLR,0.00,VWS V14.00,2013-04-14 06:57:00,
2013-04-14 02:03:00,26.3,20.4,29.89,East,79,0.0,1.0,78,0.00,,CLR,0.00,VWS V14.00,2013-04-14 07:03:00,
2013-04-14 02:08:00,26.3,20.4,29.89,East,79,0.0,1.0,78,0.00,,CLR,0.00,VWS V14.00,2013-04-14 07:08:00,
2013-04-14 02:13:00,26.2,20.3,29.89,East,83,0.0,1.0,78,0.00,,CLR,0.00,VWS V14.00,2013-04-14 07:13:00,
2013-04-14 02:18:00,26.3,20.4,29.89,East,84,0.0,1.0,78,0.00,,CLR,0.00,VWS V14.00,2013-04-14 07:18:00,
2013-04-14 02:23:00,26.3,20.4,29.89,East,86,0.0,1.0,78,0.00,,CLR,0.00,VWS V14.00,2013-04-14 07:23:00,
2013-04-14 02:28:00,26.3,20.1,29.89,East,86,0.0,1.0,77,0.00,,CLR,0.00,VWS V14.00,2013-04-14 07:28:00,
2013-04-14 02:33:00,26.3,20.1,29.89,East,86,0.0,1.0,77,0.00,,CLR,0.00,VWS V14.00,2013-04-14 07:33:00,
2013-04-14 02:38:00,26.3,20.1,29.88,East,86,0.0,1.0,77,0.00,,CLR,0.00,VWS V14.00,2013-04-14 07:38:00,
2013-04-14 02:43:00,26.3,20.1,29.89,East,86,0.0,1.0,77,0.00,,CLR,0.00,VWS V14.00,2013-04-14 07:43:00,
2013-04-14 02:48:00,26.4,20.2,29.89,East,86,0.0,1.0,77,0.00,,CLR,0.00,VWS V14.00,2013-04-14 07:48:00,
2013-04-14 02:53:00,26.4,20.2,29.89,East,86,0.0,0.0,77,0.00,,CLR,0.00,VWS V14.00,2013-04-14 07:53:00,
2013-04-14 02:58:00,26.3,19.8,29.88,East,86,0.0,1.0,76,0.00,,CLR,0.00,VWS V14.00,2013-04-14 07:58:00,
2013-04-14 03:03:00,26.2,20.0,29.89,East,86,0.0,0.0,77,0.00,,CLR,0.00,VWS V14.00,2013-04-14 08:03:00,
2013-04-14 03:08:00,26.1,19.9,29.89,East,86,0.0,0.0,77,0.00,,CLR,0.00,VWS V14.00,2013-04-14 08:08:00,
2013-04-14 03:13:00,26.1,19.9,29.88,East,86,0.0,0.0,77,0.00,,CLR,0.00,VWS V14.00,2013-04-14 08:13:00,
2013-04-14 03:18:00,25.9,19.4,29.88,East,86,0.0,0.0,76,0.00,,CLR,0.00,VWS V14.00,2013-04-14 08:18:00,
2013-04-14 03:23:00,25.9,19.4,29.88,East,81,0.0,0.0,76,0.00,,CLR,0.00,VWS V14.00,2013-04-14 08:23:00,
2013-04-14 03:28:00,25.9,19.7,29.87,East,81,0.0,0.0,77,0.00,,CLR,0.00,VWS V14.00,2013-04-14 08:28:00,
2013-04-14 03:33:00,26.0,19.8,29.86,ENE,73,6.0,10.0,77,0.00,,CLR,0.00,VWS V14.00,2013-04-14 08:33:00,
2013-04-14 03:38:00,26.0,19.5,29.86,ENE,74,6.0,10.0,76,0.00,,CLR,0.00,VWS V14.00,2013-04-14 08:38:00,
2013-04-14 03:43:00,26.0,19.8,29.86,ENE,72,6.0,9.0,77,0.00,,CLR,0.00,VWS V14.00,2013-04-14 08:43:00,
2013-04-14 03:48:00,26.0,19.8,29.86,ENE,71,7.0,9.0,77,0.00,,CLR,0.00,VWS V14.00,2013-04-14 08:48:00,
2013-04-14 03:53:00,26.0,19.8,29.86,ENE,72,6.0,7.0,77,0.00,,CLR,0.00,VWS V14.00,2013-04-14 08:53:00,
2013-04-14 03:58:00,26.1,19.9,29.86,ENE,72,0.0,7.0,77,0.00,,CLR,0.00,VWS V14.00,2013-04-14 08:58:00,
2013-04-14 04:03:00,26.3,20.1,29.87,ENE,70,0.0,1.0,77,0.00,,SCT110,0.00,VWS V14.00,2013-04-14 09:03:00,
2013-04-14 04:08:00,26.5,20.3,29.86,ENE,71,0.0,1.0,77,0.00,,SCT110,0.00,VWS V14.00,2013-04-14 09:08:00,
2013-04-14 04:13:00,26.7,20.5,29.87,ENE,71,0.0,0.0,77,0.00,,SCT110,0.00,VWS V14.00,2013-04-14 09:13:00,
2013-04-14 04:18:00,26.9,20.7,29.87,ENE,71,0.0,0.0,77,0.00,,SCT110,0.00,VWS V14.00,2013-04-14 09:18:00,
2013-04-14 04:23:00,27.0,20.5,29.87,ENE,71,0.0,0.0,76,0.00,,SCT110,0.00,VWS V14.00,2013-04-14 09:23:00,
2013-04-14 04:28:00,27.1,20.9,29.87,ENE,71,0.0,0.0,77,0.00,,SCT110,0.00,VWS V14.00,2013-04-14 09:28:00,
2013-04-14 04:33:00,27.3,21.1,29.87,ENE,72,0.0,0.0,77,0.00,,SCT110,0.00,VWS V14.00,2013-04-14 09:33:00,
2013-04-14 04:38:00,27.4,21.1,29.87,ENE,72,0.0,0.0,77,0.00,,SCT110,0.00,VWS V14.00,2013-04-14 09:38:00,
2013-04-14 04:43:00,27.6,21.4,29.86,ENE,70,0.0,1.0,77,0.00,,SCT110,0.00,VWS V14.00,2013-04-14 09:43:00,
2013-04-14 04:48:00,27.8,21.5,29.86,ENE,69,0.0,1.0,77,0.00,,SCT110,0.00,VWS V14.00,2013-04-14 09:48:00,
2013-04-14 04:53:00,27.8,21.2,29.85,ENE,70,0.0,1.0,76,0.00,,SCT110,0.00,VWS V14.00,2013-04-14 09:53:00,
2013-04-14 04:58:00,27.9,21.3,29.86,ENE,78,0.0,1.0,76,0.00,,SCT110,0.00,VWS V14.00,2013-04-14 09:58:00,
2013-04-14 05:03:00,28.0,21.1,29.86,ENE,73,4.0,9.0,75,0.00,,OVC085,0.00,VWS V14.00,2013-04-14 10:03:00,
2013-04-14 05:08:00,28.2,21.3,29.86,ENE,68,4.0,9.0,75,0.00,,OVC085,0.00,VWS V14.00,2013-04-14 10:08:00,
2013-04-14 05:13:00,28.3,21.4,29.86,ENE,72,9.0,10.0,75,0.00,,OVC085,0.00,VWS V14.00,2013-04-14 10:13:00,
2013-04-14 05:18:00,28.3,21.4,29.86,ENE,72,4.0,10.0,75,0.00,,OVC085,0.00,VWS V14.00,2013-04-14 10:18:00,
2013-04-14 05:23:00,28.3,21.4,29.86,ENE,72,1.0,9.0,75,0.00,,OVC085,0.00,VWS V14.00,2013-04-14 10:23:00,
2013-04-14 05:28:00,28.3,21.4,29.86,ENE,69,0.0,9.0,75,0.00,,OVC085,0.00,VWS V14.00,2013-04-14 10:28:00,
2013-04-14 05:33:00,28.3,21.4,29.85,ENE,68,4.0,8.0,75,0.00,,OVC085,0.00,VWS V14.00,2013-04-14 10:33:00,
2013-04-14 05:38:00,28.2,21.3,29.86,ENE,68,5.0,10.0,75,0.00,,OVC085,0.00,VWS V14.00,2013-04-14 10:38:00,
2013-04-14 05:43:00,28.2,21.6,29.86,ENE,70,4.0,10.0,76,0.00,,OVC085,0.00,VWS V14.00,2013-04-14 10:43:00,
2013-04-14 05:48:00,28.2,21.6,29.86,ENE,70,4.0,10.0,76,0.00,,OVC085,0.00,VWS V14.00,2013-04-14 10:48:00,
2013-04-14 05:53:00,28.2,21.6,29.86,ENE,69,5.0,10.0,76,0.00,,OVC085,0.00,VWS V14.00,2013-04-14 10:53:00,
2013-04-14 05:58:00,28.2,21.6,29.86,ENE,72,6.0,10.0,76,0.00,,OVC085,0.00,VWS V14.00,2013-04-14 10:58:00,
2013-04-14 06:03:00,28.2,21.6,29.85,ENE,64,7.0,10.0,76,0.00,,OVC080,0.00,VWS V14.00,2013-04-14 11:03:00,
2013-04-14 06:09:00,28.2,21.6,29.85,ENE,73,4.0,10.0,76,0.00,,OVC080,0.00,VWS V14.00,2013-04-14 11:09:00,
2013-04-14 06:13:00,28.2,21.6,29.85,ENE,68,3.0,9.0,76,0.00,,OVC080,0.00,VWS V14.00,2013-04-14 11:13:00,
2013-04-14 06:19:00,28.2,21.6,29.84,ENE,68,6.0,10.0,76,0.00,,OVC080,0.00,VWS V14.00,2013-04-14 11:19:00,
2013-04-14 06:24:00,28.2,21.9,29.84,ENE,72,5.0,12.0,77,0.00,,OVC080,0.00,VWS V14.00,2013-04-14 11:24:00,
2013-04-14 06:29:00,28.2,21.9,29.84,ENE,70,6.0,13.0,77,0.00,,OVC080,0.00,VWS V14.00,2013-04-14 11:29:00,
2013-04-14 06:34:00,28.2,21.9,29.83,ENE,69,7.0,11.0,77,0.00,,OVC080,0.00,VWS V14.00,2013-04-14 11:34:00,
2013-04-14 06:39:00,28.2,22.2,29.83,ENE,68,8.0,12.0,78,0.00,,OVC080,0.00,VWS V14.00,2013-04-14 11:39:00,
2013-04-14 06:44:00,28.3,22.3,29.83,ENE,67,8.0,11.0,78,0.00,,OVC080,0.00,VWS V14.00,2013-04-14 11:44:00,
2013-04-14 06:49:00,28.3,22.3,29.83,ENE,68,10.0,12.0,78,0.00,,OVC080,0.00,VWS V14.00,2013-04-14 11:49:00,
2013-04-14 06:54:00,28.3,22.3,29.83,East,79,9.0,11.0,78,0.00,,OVC080,0.00,VWS V14.00,2013-04-14 11:54:00,
2013-04-14 06:59:00,28.3,22.6,29.82,ENE,60,9.0,12.0,79,0.00,,OVC080,0.00,VWS V14.00,2013-04-14 11:59:00,
2013-04-14 07:04:00,28.3,22.6,29.82,ENE,64,7.0,12.0,79,0.00,,BKN120,0.00,VWS V14.00,2013-04-14 12:04:00,
2013-04-14 07:09:00,28.3,22.6,29.81,ENE,63,9.0,13.0,79,0.00,,BKN120,0.00,VWS V14.00,2013-04-14 12:09:00,
2013-04-14 07:14:00,28.3,22.9,29.81,ENE,77,10.0,12.0,80,0.00,,BKN120,0.00,VWS V14.00,2013-04-14 12:14:00,
2013-04-14 07:19:00,28.4,22.7,29.81,ENE,62,7.0,13.0,79,0.00,,BKN120,0.00,VWS V14.00,2013-04-14 12:19:00,
2013-04-14 07:24:00,28.5,22.8,29.80,ENE,63,7.0,12.0,79,0.00,,BKN120,0.00,VWS V14.00,2013-04-14 12:24:00,
2013-04-14 07:29:00,28.6,22.9,29.81,ENE,75,9.0,12.0,79,0.00,,BKN120,0.00,VWS V14.00,2013-04-14 12:29:00,
2013-04-14 07:34:00,28.8,23.1,29.80,ENE,74,8.0,12.0,79,0.00,,BKN120,0.00,VWS V14.00,2013-04-14 12:34:00,
2013-04-14 07:39:00,29.0,23.3,29.80,ENE,75,10.0,12.0,79,0.00,,BKN120,0.00,VWS V14.00,2013-04-14 12:39:00,
2013-04-14 07:44:00,29.1,23.4,29.80,ENE,71,9.0,12.0,79,0.00,,BKN120,0.00,VWS V14.00,2013-04-14 12:44:00,
2013-04-14 07:49:00,29.3,23.3,29.80,ENE,75,6.0,13.0,78,0.00,,BKN120,0.00,VWS V14.00,2013-04-14 12:49:00,
2013-04-14 07:54:00,29.6,23.3,29.80,East,84,5.0,12.0,77,0.00,,BKN120,0.00,VWS V14.00,2013-04-14 12:54:00,
2013-04-14 07:59:00,29.8,23.5,29.80,ENE,70,8.0,12.0,77,0.00,,BKN120,0.00,VWS V14.00,2013-04-14 12:59:00,
2013-04-14 08:04:00,29.9,23.3,29.80,ENE,65,9.0,12.0,76,0.00,,OVC095,0.00,VWS V14.00,2013-04-14 13:04:00,
2013-04-14 08:09:00,30.0,23.4,29.79,East,81,9.0,12.0,76,0.00,,OVC095,0.00,VWS V14.00,2013-04-14 13:09:00,
2013-04-14 08:14:00,30.1,23.1,29.80,ENE,59,5.0,12.0,75,0.00,,OVC095,0.00,VWS V14.00,2013-04-14 13:14:00,
2013-04-14 08:19:00,30.3,23.3,29.79,East,87,7.0,12.0,75,0.00,,OVC095,0.00,VWS V14.00,2013-04-14 13:19:00,
2013-04-14 08:24:00,30.4,23.1,29.79,ENE,70,4.0,14.0,74,0.00,,OVC095,0.00,VWS V14.00,2013-04-14 13:24:00,
2013-04-14 08:29:00,30.6,23.3,29.78,East,81,8.0,14.0,74,0.00,,OVC095,0.00,VWS V14.00,2013-04-14 13:29:00,
2013-04-14 08:34:00,30.8,23.5,29.78,ENE,66,8.0,10.0,74,0.00,,OVC095,0.00,VWS V14.00,2013-04-14 13:34:00,
2013-04-14 08:39:00,30.9,23.3,29.78,East,80,6.0,14.0,73,0.00,,OVC095,0.00,VWS V14.00,2013-04-14 13:39:00,
2013-04-14 08:44:00,31.0,23.4,29.78,East,94,14.0,16.0,73,0.00,,OVC095,0.00,VWS V14.00,2013-04-14 13:44:00,
2013-04-14 08:49:00,31.1,23.1,29.78,ENE,75,9.0,16.0,72,0.00,,OVC095,0.00,VWS V14.00,2013-04-14 13:49:00,
2013-04-14 08:54:00,31.3,23.3,29.77,East,82,5.0,12.0,72,0.00,,OVC095,0.00,VWS V14.00,2013-04-14 13:54:00,
2013-04-14 08:59:00,31.4,23.4,29.77,ENE,68,7.0,15.0,72,0.00,,OVC095,0.00,VWS V14.00,2013-04-14 13:59:00,
2013-04-14 09:04:00,31.5,23.5,29.76,East,86,9.0,13.0,72,0.00,,OVC085,0.00,VWS V14.00,2013-04-14 14:04:00,
2013-04-14 09:09:00,31.7,23.7,29.76,East,85,9.0,15.0,72,0.00,,OVC085,0.00,VWS V14.00,2013-04-14 14:09:00,
2013-04-14 09:14:00,31.9,23.6,29.76,East,84,12.0,16.0,71,0.00,,OVC085,0.00,VWS V14.00,2013-04-14 14:14:00,
2013-04-14 09:19:00,32.1,23.8,29.77,East,85,9.0,16.0,71,0.00,,OVC085,0.00,VWS V14.00,2013-04-14 14:19:00,
2013-04-14 09:24:00,32.1,23.8,29.76,ENE,76,8.0,15.0,71,0.00,,OVC085,0.00,VWS V14.00,2013-04-14 14:24:00,
2013-04-14 09:29:00,32.3,23.6,29.76,East,87,6.0,15.0,70,0.00,,OVC085,0.00,VWS V14.00,2013-04-14 14:29:00,
2013-04-14 09:34:00,32.6,23.9,29.75,ENE,76,9.0,14.0,70,0.00,,OVC085,0.00,VWS V14.00,2013-04-14 14:34:00,
2013-04-14 09:39:00,32.9,24.2,29.74,ENE,71,9.0,15.0,70,0.00,,OVC085,0.00,VWS V14.00,2013-04-14 14:39:00,
2013-04-14 09:44:00,33.3,24.2,29.74,East,82,10.0,15.0,69,0.00,,OVC085,0.00,VWS V14.00,2013-04-14 14:44:00,
2013-04-14 09:49:00,33.6,24.2,29.75,East,87,11.0,15.0,68,0.00,,OVC085,0.00,VWS V14.00,2013-04-14 14:49:00,
2013-04-14 09:54:00,33.7,24.3,29.74,ENE,73,7.0,15.0,68,0.00,,OVC085,0.00,VWS V14.00,2013-04-14 14:54:00,
2013-04-14 09:59:00,33.8,24.4,29.74,East,86,6.0,15.0,68,0.00,,OVC085,0.00,VWS V14.00,2013-04-14 14:59:00,
2013-04-14 10:04:00,33.9,24.5,29.74,East,94,11.0,13.0,68,0.00,,OVC085,0.00,VWS V14.00,2013-04-14 15:04:00,
2013-04-14 10:10:00,33.9,24.1,29.74,East,79,5.0,16.0,67,0.00,,OVC085,0.00,VWS V14.00,2013-04-14 15:10:00,
2013-04-14 10:15:00,34.1,24.3,29.74,East,90,6.0,16.0,67,0.00,,OVC085,0.00,VWS V14.00,2013-04-14 15:15:00,
2013-04-14 10:20:00,34.3,24.5,29.73,ENE,68,5.0,7.0,67,0.00,,OVC085,0.00,VWS V14.00,2013-04-14 15:20:00,
2013-04-14 10:25:00,34.5,24.3,29.74,ENE,74,8.0,14.0,66,0.00,,OVC085,0.00,VWS V14.00,2013-04-14 15:25:00,
2013-04-14 10:30:00,34.4,23.9,29.73,ENE,78,8.0,13.0,65,0.00,,OVC085,0.00,VWS V14.00,2013-04-14 15:30:00,
2013-04-14 10:35:00,34.4,24.2,29.73,East,100,9.0,13.0,66,0.00,,OVC085,0.00,VWS V14.00,2013-04-14 15:35:00,
2013-04-14 10:40:00,34.4,24.2,29.73,East,84,7.0,10.0,66,0.00,,OVC085,0.00,VWS V14.00,2013-04-14 15:40:00,
2013-04-14 10:45:00,34.5,24.0,29.73,East,87,7.0,12.0,65,0.00,,OVC085,0.00,VWS V14.00,2013-04-14 15:45:00,
2013-04-14 10:50:00,34.4,23.9,29.73,East,84,12.0,16.0,65,0.00,,OVC085,0.00,VWS V14.00,2013-04-14 15:50:00,
2013-04-14 10:55:00,34.3,23.4,29.73,ENE,78,7.0,16.0,64,0.00,,OVC085,0.00,VWS V14.00,2013-04-14 15:55:00,
2013-04-14 11:00:00,34.3,23.4,29.73,East,89,14.0,14.0,64,0.00,,OVC085,0.00,VWS V14.00,2013-04-14 16:00:00,
2013-04-14 11:05:00,34.3,23.4,29.73,East,94,11.0,15.0,64,0.00,,OVC075,0.00,VWS V14.00,2013-04-14 16:05:00,
2013-04-14 11:10:00,34.3,23.8,29.73,East,85,7.0,11.0,65,0.00,,OVC075,0.00,VWS V14.00,2013-04-14 16:10:00,
2013-04-14 11:15:00,34.3,23.8,29.73,East,88,9.0,11.0,65,0.00,,OVC075,0.00,VWS V14.00,2013-04-14 16:15:00,
2013-04-14 11:20:00,34.2,23.7,29.73,East,86,8.0,10.0,65,0.00,,OVC075,0.00,VWS V14.00,2013-04-14 16:20:00,
2013-04-14 11:25:00,34.1,23.6,29.72,East,94,9.0,14.0,65,0.00,,OVC075,0.00,VWS V14.00,2013-04-14 16:25:00,
2013-04-14 11:30:00,34.0,23.5,29.72,ENE,75,5.0,9.0,65,0.00,,OVC075,0.00,VWS V14.00,2013-04-14 16:30:00,
2013-04-14 11:35:00,33.9,23.4,29.72,East,85,7.0,13.0,65,0.00,,OVC075,0.00,VWS V14.00,2013-04-14 16:35:00,
2013-04-14 11:40:00,33.9,23.0,29.72,East,79,6.0,11.0,64,0.00,,OVC075,0.00,VWS V14.00,2013-04-14 16:40:00,
2013-04-14 11:45:00,33.9,23.4,29.72,East,83,6.0,11.0,65,0.00,,OVC075,0.00,VWS V14.00,2013-04-14 16:45:00,
2013-04-14 11:51:00,34.0,23.5,29.72,ENE,76,3.0,9.0,65,0.00,,OVC075,0.00,VWS V14.00,2013-04-14 16:51:00,
2013-04-14 11:56:00,33.9,23.4,29.71,ENE,76,6.0,12.0,65,0.00,,OVC075,0.00,VWS V14.00,2013-04-14 16:56:00,
2013-04-14 12:01:00,34.0,23.5,29.71,ENE,76,4.0,13.0,65,0.00,,OVC075,0.00,VWS V14.00,2013-04-14 17:01:00,
2013-04-14 12:06:00,34.0,23.5,29.70,NE,56,9.0,14.0,65,0.00,,OVC048,0.00,VWS V14.00,2013-04-14 17:06:00,
2013-04-14 12:11:00,34.1,23.2,29.70,ENE,63,13.0,15.0,64,0.00,,OVC048,0.00,VWS V14.00,2013-04-14 17:11:00,
2013-04-14 12:16:00,34.3,23.0,29.70,ENE,75,8.0,20.0,63,0.00,,OVC048,0.00,VWS V14.00,2013-04-14 17:16:00,
2013-04-14 12:21:00,34.3,23.8,29.69,ENE,74,11.0,12.0,65,0.00,,OVC048,0.00,VWS V14.00,2013-04-14 17:21:00,
2013-04-14 12:26:00,34.1,23.6,29.69,ENE,60,9.0,21.0,65,0.00,,OVC048,0.00,VWS V14.00,2013-04-14 17:26:00,
2013-04-14 12:31:00,33.8,24.0,29.69,East,83,10.0,20.0,67,0.00,,OVC048,0.00,VWS V14.00,2013-04-14 17:31:00,
2013-04-14 12:36:00,33.1,24.4,29.69,NE,52,9.0,20.0,70,0.00,,OVC048,0.00,VWS V14.00,2013-04-14 17:36:00,
2013-04-14 12:41:00,32.8,24.5,29.68,NE,54,12.0,16.0,71,0.00,,OVC048,0.00,VWS V14.00,2013-04-14 17:41:00,
2013-04-14 12:47:00,32.9,24.9,29.67,NE,50,12.0,16.0,72,0.00,,,0.00,VWS V14.00,2013-04-14 17:47:00,
2013-04-14 12:52:00,33.5,24.8,29.67,ENE,66,10.0,16.0,70,0.00,,,0.00,VWS V14.00,2013-04-14 17:52:00,
2013-04-14 12:57:00,34.0,24.6,29.66,NE,43,9.0,17.0,68,0.00,,,0.00,VWS V14.00,2013-04-14 17:57:00,
2013-04-14 13:02:00,34.3,24.5,29.66,NE,52,8.0,15.0,67,0.00,,,0.00,VWS V14.00,2013-04-14 18:02:00,
2013-04-14 13:07:00,34.5,24.3,29.66,NE,56,6.0,20.0,66,0.00,,,0.00,VWS V14.00,2013-04-14 18:07:00,
2013-04-14 13:12:00,34.7,24.1,29.66,ENE,60,6.0,16.0,65,0.00,,,0.00,VWS V14.00,2013-04-14 18:12:00,
2013-04-14 13:17:00,34.6,24.4,29.66,ENE,72,6.0,20.0,66,0.00,,,0.00,VWS V14.00,2013-04-14 18:17:00,
2013-04-14 13:23:00,34.6,24.4,29.66,NE,56,11.0,17.0,66,0.00,,,0.00,VWS V14.00,2013-04-14 18:23:00,
2013-04-14 13:28:00,34.7,24.5,29.67,ENE,76,11.0,19.0,66,0.00,,,0.00,VWS V14.00,2013-04-14 18:28:00,
2013-04-14 13:33:00,34.7,24.5,29.67,ENE,68,1.0,12.0,66,0.00,,,0.00,VWS V14.00,2013-04-14 18:33:00,
2013-04-14 13:38:00,34.7,24.9,29.67,ENE,71,11.0,16.0,67,0.00,,,0.00,VWS V14.00,2013-04-14 18:38:00,
2013-04-14 13:43:00,34.6,24.8,29.67,ENE,69,7.0,20.0,67,0.00,,,0.00,VWS V14.00,2013-04-14 18:43:00,
2013-04-14 13:48:00,34.9,24.7,29.66,ENE,63,12.0,20.0,66,0.00,,,0.00,VWS V14.00,2013-04-14 18:48:00,
2013-04-14 13:53:00,35.0,24.4,29.66,ENE,72,10.0,17.0,65,0.00,,,0.00,VWS V14.00,2013-04-14 18:53:00,
2013-04-14 13:58:00,34.8,25.0,29.66,ENE,65,9.0,29.0,67,0.00,,,0.00,VWS V14.00,2013-04-14 18:58:00,
2013-04-14 14:03:00,34.1,25.0,29.66,East,80,11.0,21.0,69,0.00,,,0.00,VWS V14.00,2013-04-14 19:03:00,
2013-04-14 14:08:00,33.5,25.5,29.65,East,91,9.0,21.0,72,0.00,,,0.00,VWS V14.00,2013-04-14 19:08:00,
2013-04-14 14:13:00,33.2,25.5,29.65,ENE,75,5.0,19.0,73,0.00,,,0.00,VWS V14.00,2013-04-14 19:13:00,
2013-04-14 14:18:00,33.1,25.7,29.65,East,88,11.0,29.0,74,0.00,,,0.00,VWS V14.00,2013-04-14 19:18:00,
2013-04-14 14:23:00,32.9,25.9,29.65,East,93,14.0,17.0,75,0.00,,,0.00,VWS V14.00,2013-04-14 19:23:00,
2013-04-14 14:28:00,32.6,26.2,29.65,ENE,74,15.0,30.0,77,0.00,,,0.00,VWS V14.00,2013-04-14 19:28:00,
2013-04-14 14:33:00,32.3,26.5,29.64,East,91,17.0,22.0,79,0.00,,,0.00,VWS V14.00,2013-04-14 19:33:00,
2013-04-14 14:38:00,32.3,26.8,29.64,East,83,14.0,24.0,80,0.00,,,0.00,VWS V14.00,2013-04-14 19:38:00,
2013-04-14 14:43:00,32.3,27.1,29.64,East,80,10.0,20.0,81,0.00,,,0.00,VWS V14.00,2013-04-14 19:43:00,
2013-04-14 14:48:00,32.5,27.3,29.63,East,92,18.0,20.0,81,0.00,,,0.00,VWS V14.00,2013-04-14 19:48:00,
2013-04-14 14:53:00,32.6,27.4,29.63,ENE,72,5.0,17.0,81,0.00,,,0.00,VWS V14.00,2013-04-14 19:53:00,
2013-04-14 14:58:00,32.7,27.5,29.62,ENE,65,9.0,19.0,81,0.00,,,0.00,VWS V14.00,2013-04-14 19:58:00,
2013-04-14 15:03:00,32.6,27.7,29.62,East,83,14.0,20.0,82,0.00,,,0.00,VWS V14.00,2013-04-14 20:03:00,
2013-04-14 15:08:00,32.6,28.0,29.62,ENE,72,17.0,24.0,83,0.00,,,0.00,VWS V14.00,2013-04-14 20:08:00,
2013-04-14 15:13:00,32.5,28.2,29.61,East,94,9.0,18.0,84,0.00,,,0.00,VWS V14.00,2013-04-14 20:13:00,
2013-04-14 15:18:00,32.3,28.3,29.61,ENE,75,6.0,18.0,85,0.00,,,0.00,VWS V14.00,2013-04-14 20:18:00,
2013-04-14 15:23:00,32.1,28.4,29.61,ENE,75,9.0,19.0,86,0.00,,,0.00,VWS V14.00,2013-04-14 20:23:00,
2013-04-14 15:28:00,32.0,28.6,29.60,ENE,63,11.0,19.0,87,0.00,,,0.00,VWS V14.00,2013-04-14 20:28:00,
2013-04-14 15:33:00,31.9,28.8,29.61,ENE,76,15.0,18.0,88,0.00,,,0.00,VWS V14.00,2013-04-14 20:33:00,
2013-04-14 15:38:00,31.8,28.7,29.61,ENE,73,12.0,18.0,88,0.00,,,0.00,VWS V14.00,2013-04-14 20:38:00,
2013-04-14 15:43:00,31.8,28.9,29.60,ENE,65,17.0,17.0,89,0.00,,,0.00,VWS V14.00,2013-04-14 20:43:00,
2013-04-14 15:48:00,31.7,28.8,29.60,ENE,65,14.0,17.0,89,0.00,,,0.00,VWS V14.00,2013-04-14 20:48:00,
2013-04-14 15:53:00,31.7,29.1,29.60,NE,54,6.0,19.0,90,0.00,,,0.00,VWS V14.00,2013-04-14 20:53:00,
2013-04-14 15:58:00,31.7,29.1,29.60,ENE,69,10.0,19.0,90,0.00,,,0.00,VWS V14.00,2013-04-14 20:58:00,
2013-04-14 16:03:00,31.7,29.4,29.60,ENE,57,8.0,14.0,91,0.00,,,0.00,VWS V14.00,2013-04-14 21:03:00,
2013-04-14 16:08:00,31.7,29.4,29.59,ENE,70,6.0,16.0,91,0.00,,,0.00,VWS V14.00,2013-04-14 21:08:00,
2013-04-14 16:14:00,31.7,29.4,29.59,NE,56,7.0,16.0,91,0.00,,,0.00,VWS V14.00,2013-04-14 21:14:00,
2013-04-14 16:19:00,31.7,29.6,29.59,ENE,58,13.0,16.0,92,0.00,,,0.00,VWS V14.00,2013-04-14 21:19:00,
2013-04-14 16:24:00,31.7,29.4,29.59,NE,43,6.0,11.0,91,0.00,,,0.00,VWS V14.00,2013-04-14 21:24:00,
2013-04-14 16:29:00,31.7,29.6,29.59,NE,34,6.0,13.0,92,0.00,,,0.00,VWS V14.00,2013-04-14 21:29:00,
2013-04-14 16:34:00,31.8,29.8,29.59,NE,53,5.0,13.0,92,0.00,,,0.00,VWS V14.00,2013-04-14 21:34:00,
2013-04-14 16:39:00,31.8,29.8,29.58,ENE,63,9.0,15.0,92,0.00,,,0.00,VWS V14.00,2013-04-14 21:39:00,
2013-04-14 16:44:00,31.8,29.8,29.58,NE,52,8.0,14.0,92,0.00,,,0.00,VWS V14.00,2013-04-14 21:44:00,
2013-04-14 16:49:00,31.8,30.0,29.58,NE,55,10.0,15.0,93,0.00,,,0.00,VWS V14.00,2013-04-14 21:49:00,
2013-04-14 16:54:00,31.8,30.0,29.58,ENE,64,8.0,20.0,93,0.00,,,0.00,VWS V14.00,2013-04-14 21:54:00,
2013-04-14 16:59:00,31.8,29.8,29.58,ENE,67,4.0,20.0,92,0.00,,,0.00,VWS V14.00,2013-04-14 21:59:00,
2013-04-14 17:04:00,31.9,30.1,29.58,ENE,57,11.0,14.0,93,0.00,,,0.00,VWS V14.00,2013-04-14 22:04:00,
2013-04-14 17:09:00,31.9,30.1,29.58,NE,54,16.0,16.0,93,0.00,,,0.00,VWS V14.00,2013-04-14 22:09:00,
2013-04-14 17:14:00,31.9,30.1,29.58,ENE,58,6.0,14.0,93,0.00,,,0.00,VWS V14.00,2013-04-14 22:14:00,
2013-04-14 17:19:00,31.9,30.1,29.58,ENE,64,11.0,14.0,93,0.00,,,0.00,VWS V14.00,2013-04-14 22:19:00,
2013-04-14 17:24:00,32.0,30.2,29.58,ENE,67,7.0,13.0,93,0.00,,,0.00,VWS V14.00,2013-04-14 22:24:00,
2013-04-14 17:29:00,31.9,30.1,29.59,ENE,67,10.0,14.0,93,0.00,,,0.00,VWS V14.00,2013-04-14 22:29:00,
2013-04-14 17:34:00,32.0,30.2,29.58,ENE,66,4.0,13.0,93,0.00,,,0.00,VWS V14.00,2013-04-14 22:34:00,
2013-04-14 17:39:00,32.0,30.2,29.58,ENE,78,9.0,15.0,93,0.00,,,0.00,VWS V14.00,2013-04-14 22:39:00,
2013-04-14 17:44:00,32.0,30.2,29.58,ENE,74,7.0,13.0,93,0.00,,,0.00,VWS V14.00,2013-04-14 22:44:00,
2013-04-14 17:49:00,32.0,30.5,29.57,ENE,69,9.0,14.0,94,0.35,,,0.35,VWS V14.00,2013-04-14 22:49:00,
2013-04-14 17:54:00,32.0,30.2,29.57,NE,50,10.0,17.0,93,0.35,,,0.35,VWS V14.00,2013-04-14 22:54:00,
2013-04-14 17:59:00,31.9,30.4,29.57,ENE,66,6.0,17.0,94,0.35,,,0.35,VWS V14.00,2013-04-14 22:59:00,
2013-04-14 18:04:00,32.0,30.5,29.58,ENE,70,7.0,16.0,94,0.35,,,0.35,VWS V14.00,2013-04-14 23:04:00,
2013-04-14 18:09:00,32.0,30.5,29.57,East,81,10.0,18.0,94,0.35,,,0.35,VWS V14.00,2013-04-14 23:09:00,
2013-04-14 18:14:00,32.1,30.6,29.57,ENE,65,6.0,16.0,94,0.35,,,0.35,VWS V14.00,2013-04-14 23:14:00,
2013-04-14 18:19:00,32.1,30.6,29.57,ENE,60,10.0,17.0,94,0.35,,,0.35,VWS V14.00,2013-04-14 23:19:00,
2013-04-14 18:24:00,32.1,30.6,29.57,ENE,69,11.0,17.0,94,0.35,,,0.35,VWS V14.00,2013-04-14 23:24:00,
2013-04-14 18:29:00,32.1,30.6,29.57,NE,41,11.0,18.0,94,0.35,,,0.35,VWS V14.00,2013-04-14 23:29:00,
2013-04-14 18:34:00,32.1,30.6,29.57,East,79,11.0,19.0,94,0.35,,,0.35,VWS V14.00,2013-04-14 23:34:00,
2013-04-14 18:39:00,32.0,30.5,29.57,ENE,73,12.0,21.0,94,0.35,,,0.35,VWS V14.00,2013-04-14 23:39:00,
2013-04-14 18:44:00,32.0,30.5,29.57,NE,46,12.0,20.0,94,0.35,,,0.35,VWS V14.00,2013-04-14 23:44:00,
2013-04-14 18:49:00,32.0,30.5,29.57,ENE,74,10.0,20.0,94,0.35,,,0.35,VWS V14.00,2013-04-14 23:49:00,
2013-04-14 18:54:00,32.0,30.5,29.57,ENE,65,12.0,20.0,94,0.00,,,0.35,VWS V14.00,2013-04-14 23:54:00,
2013-04-14 18:59:00,32.0,30.5,29.57,ENE,65,18.0,20.0,94,0.00,,,0.35,VWS V14.00,2013-04-14 23:59:00,
2013-04-14 19:05:00,31.9,30.4,29.57,ENE,69,11.0,21.0,94,0.00,,,0.35,VWS V14.00,2013-04-15 00:05:00,
2013-04-14 19:10:00,31.9,30.4,29.57,ENE,67,9.0,21.0,94,0.00,,,0.35,VWS V14.00,2013-04-15 00:10:00,
2013-04-14 19:15:00,31.9,30.4,29.57,NE,55,17.0,19.0,94,0.00,,,0.35,VWS V14.00,2013-04-15 00:15:00,
2013-04-14 19:20:00,31.8,30.3,29.57,ENE,61,12.0,17.0,94,0.00,,,0.35,VWS V14.00,2013-04-15 00:20:00,
2013-04-14 19:25:00,31.8,30.3,29.57,East,80,7.0,22.0,94,0.00,,,0.35,VWS V14.00,2013-04-15 00:25:00,
2013-04-14 19:30:00,31.7,30.2,29.56,ENE,64,14.0,17.0,94,0.00,,,0.35,VWS V14.00,2013-04-15 00:30:00,
2013-04-14 19:35:00,31.7,30.2,29.56,NE,50,7.0,23.0,94,0.00,,,0.35,VWS V14.00,2013-04-15 00:35:00,
2013-04-14 19:40:00,31.7,30.4,29.56,ENE,65,10.0,19.0,95,0.00,,,0.35,VWS V14.00,2013-04-15 00:40:00,
2013-04-14 19:45:00,31.7,30.4,29.56,ENE,65,13.0,26.0,95,0.00,,,0.35,VWS V14.00,2013-04-15 00:45:00,
2013-04-14 19:50:00,31.6,30.3,29.56,ENE,66,13.0,14.0,95,0.00,,,0.35,VWS V14.00,2013-04-15 00:50:00,
2013-04-14 19:55:00,31.6,30.1,29.56,ENE,70,16.0,23.0,94,0.00,,,0.35,VWS V14.00,2013-04-15 00:55:00,
2013-04-14 20:00:00,31.6,30.3,29.56,ENE,68,15.0,18.0,95,0.00,,,0.35,VWS V14.00,2013-04-15 01:00:00,
2013-04-14 20:05:00,31.6,30.3,29.56,ENE,68,17.0,20.0,95,0.00,,,0.35,VWS V14.00,2013-04-15 01:05:00,
2013-04-14 20:10:00,31.6,30.3,29.56,East,79,10.0,14.0,95,0.00,,,0.35,VWS V14.00,2013-04-15 01:10:00,
2013-04-14 20:15:00,31.6,30.1,29.55,ENE,59,19.0,19.0,94,0.00,,,0.35,VWS V14.00,2013-04-15 01:15:00,
2013-04-14 20:20:00,31.6,30.3,29.56,ENE,71,15.0,18.0,95,0.00,,,0.35,VWS V14.00,2013-04-15 01:20:00,
2013-04-14 20:25:00,31.5,30.2,29.55,ENE,71,12.0,18.0,95,0.00,,,0.35,VWS V14.00,2013-04-15 01:25:00,
2013-04-14 20:30:00,31.5,30.2,29.55,ENE,62,17.0,17.0,95,0.00,,,0.35,VWS V14.00,2013-04-15 01:30:00,
2013-04-14 20:35:00,31.5,30.2,29.55,ENE,63,14.0,18.0,95,0.00,,,0.35,VWS V14.00,2013-04-15 01:35:00,
2013-04-14 20:40:00,31.5,30.2,29.55,ENE,59,11.0,15.0,95,0.00,,,0.35,VWS V14.00,2013-04-15 01:40:00,
2013-04-14 20:45:00,31.5,30.2,29.55,NE,51,8.0,17.0,95,0.00,,,0.35,VWS V14.00,2013-04-15 01:45:00,
2013-04-14 20:50:00,31.4,30.1,29.55,ENE,77,7.0,13.0,95,0.00,,,0.35,VWS V14.00,2013-04-15 01:50:00,
2013-04-14 20:55:00,31.4,30.1,29.55,ENE,59,14.0,15.0,95,0.00,,,0.35,VWS V14.00,2013-04-15 01:55:00,
2013-04-14 21:00:00,31.5,30.2,29.55,ENE,60,12.0,17.0,95,0.00,,,0.35,VWS V14.00,2013-04-15 02:00:00,
2013-04-14 21:05:00,31.5,30.2,29.55,ENE,62,12.0,17.0,95,0.00,,,0.35,VWS V14.00,2013-04-15 02:05:00,
2013-04-14 21:10:00,31.4,30.1,29.54,ENE,64,6.0,13.0,95,0.00,,,0.35,VWS V14.00,2013-04-15 02:10:00,
2013-04-14 21:15:00,31.4,30.1,29.54,NE,53,9.0,16.0,95,0.00,,,0.35,VWS V14.00,2013-04-15 02:15:00,
2013-04-14 21:20:00,31.4,30.1,29.54,ENE,67,6.0,17.0,95,0.00,,,0.35,VWS V14.00,2013-04-15 02:20:00,
2013-04-14 21:25:00,31.4,30.1,29.54,NE,47,12.0,17.0,95,0.00,,,0.35,VWS V14.00,2013-04-15 02:25:00,
2013-04-14 21:30:00,31.4,30.1,29.54,ENE,60,7.0,12.0,95,0.00,,,0.35,VWS V14.00,2013-04-15 02:30:00,
2013-04-14 21:35:00,31.3,30.0,29.54,NE,49,6.0,17.0,95,0.00,,,0.35,VWS V14.00,2013-04-15 02:35:00,
2013-04-14 21:40:00,31.3,30.0,29.54,ENE,63,7.0,14.0,95,0.00,,,0.35,VWS V14.00,2013-04-15 02:40:00,
2013-04-14 21:45:00,31.3,30.3,29.54,NE,54,10.0,15.0,96,0.00,,,0.35,VWS V14.00,2013-04-15 02:45:00,
2013-04-14 21:51:00,31.3,30.0,29.54,NE,51,6.0,14.0,95,0.00,,,0.35,VWS V14.00,2013-04-15 02:51:00,
2013-04-14 21:55:00,31.3,30.0,29.53,NE,39,6.0,14.0,95,0.00,,,0.35,VWS V14.00,2013-04-15 02:55:00,
2013-04-14 22:01:00,31.3,30.0,29.53,ENE,61,5.0,10.0,95,0.00,,,0.35,VWS V14.00,2013-04-15 03:01:00,
2013-04-14 22:06:00,31.3,30.3,29.53,ENE,59,6.0,14.0,96,0.00,,,0.35,VWS V14.00,2013-04-15 03:06:00,
2013-04-14 22:11:00,31.2,29.9,29.53,NE,39,9.0,10.0,95,0.00,,,0.35,VWS V14.00,2013-04-15 03:11:00,
2013-04-14 22:16:00,31.2,29.9,29.53,ENE,59,9.0,13.0,95,0.00,,,0.35,VWS V14.00,2013-04-15 03:16:00,
2013-04-14 22:21:00,31.2,29.9,29.53,NE,52,9.0,10.0,95,0.00,,,0.35,VWS V14.00,2013-04-15 03:21:00,
2013-04-14 22:26:00,31.2,29.9,29.52,NE,47,14.0,14.0,95,0.00,,,0.35,VWS V14.00,2013-04-15 03:26:00,
2013-04-14 22:31:00,31.2,29.9,29.52,NE,46,6.0,13.0,95,0.00,,,0.35,VWS V14.00,2013-04-15 03:31:00,
2013-04-14 22:36:00,31.2,29.9,29.52,NE,46,9.0,17.0,95,0.00,,,0.35,VWS V14.00,2013-04-15 03:36:00,
2013-04-14 22:41:00,31.1,29.8,29.51,NE,48,12.0,16.0,95,0.00,,,0.35,VWS V14.00,2013-04-15 03:41:00,
2013-04-14 22:46:00,31.1,29.8,29.51,ENE,61,9.0,16.0,95,0.00,,,0.35,VWS V14.00,2013-04-15 03:46:00,
2013-04-14 22:51:00,31.1,30.1,29.51,ENE,61,4.0,13.0,96,0.00,,,0.35,VWS V14.00,2013-04-15 03:51:00,
2013-04-14 22:56:00,31.0,30.0,29.50,NE,46,8.0,15.0,96,0.00,,,0.35,VWS V14.00,2013-04-15 03:56:00,
2013-04-14 23:00:00,31.1,29.8,29.50,NE,43,6.0,15.0,95,0.00,,,0.35,VWS V14.00,2013-04-15 04:00:00,
2013-04-14 23:05:00,31.0,29.7,29.50,NNE,33,5.0,12.0,95,0.00,,,0.35,VWS V14.00,2013-04-15 04:05:00,
2013-04-14 23:10:00,31.0,29.7,29.50,NE,53,6.0,12.0,95,0.00,,,0.35,VWS V14.00,2013-04-15 04:10:00,
2013-04-14 23:15:00,31.0,30.0,29.49,NNE,31,12.0,12.0,96,0.00,,,0.35,VWS V14.00,2013-04-15 04:15:00,
2013-04-14 23:20:00,31.0,30.0,29.49,NE,52,8.0,11.0,96,0.00,,,0.35,VWS V14.00,2013-04-15 04:20:00,
2013-04-14 23:25:00,31.0,29.7,29.49,NE,39,5.0,16.0,95,0.00,,,0.35,VWS V14.00,2013-04-15 04:25:00,
2013-04-14 23:31:00,31.0,29.7,29.49,NE,44,12.0,12.0,95,0.00,,,0.35,VWS V14.00,2013-04-15 04:31:00,
2013-04-14 23:36:00,30.9,29.9,29.48,NE,36,5.0,12.0,96,0.00,,,0.35,VWS V14.00,2013-04-15 04:36:00,
2013-04-14 23:41:00,31.0,29.7,29.48,NE,43,7.0,11.0,95,0.00,,,0.35,VWS V14.00,2013-04-15 04:41:00,
2013-04-14 23:46:00,30.9,29.6,29.48,NE,49,9.0,12.0,95,0.00,,,0.35,VWS V14.00,2013-04-15 04:46:00,
2013-04-14 23:51:00,31.0,30.0,29.48,NE,40,7.0,11.0,96,0.00,,,0.35,VWS V14.00,2013-04-15 04:51:00,
2013-04-14 23:56:00,30.9,29.6,29.47,NE,44,7.0,11.0,95,0.29,,,0.64,VWS V14.00,2013-04-15 04:56:00,